When you browse on this site, cookies collect data to enhance your experience and personalize the content and advertising you see.
Visit our Privacy Policy to learn more. By continuing to use the site, you agree to this use of cookies and data.
  • In United Kingdom
  • List of Countries
  • For 7 days
  • Water Temperature
  • Weather Map
  • Weather Widgets
  • user-avatar
    Login

    Hourly Weather Hameln

    Today, 26 January, Sunday

    Time Temperature Precipitation Wind Pressure Humidity
    00:00 0°C° 0 mm 1 mps 755 mmHg 69%
    01:00 0°C° 0 mm 1 mps 754 mmHg 69%
    02:00 0°C° 0 mm 1 mps 754 mmHg 71%
    03:00 0°C° 0 mm 1 mps 754 mmHg 74%
    04:00 0°C° 0 mm 1 mps 754 mmHg 76%
    05:00 -1°C° 0 mm 2 mps 753 mmHg 78%
    06:00 -1°C° 0 mm 2 mps 753 mmHg 80%
    07:00 -1°C° 0 mm 2 mps 753 mmHg 86%
    08:00 -1°C° 0 mm 2 mps 753 mmHg 85%
    09:00 +1°C° 0 mm 2 mps 753 mmHg 84%
    10:00 +2°C° 0 mm 2 mps 753 mmHg 84%
    11:00 +3°C° 0 mm 2 mps 753 mmHg 80%
    12:00 +4°C° 0 mm 2 mps 752 mmHg 77%
    13:00 +4°C° 0 mm 2 mps 752 mmHg 75%
    14:00 +4°C° 0 mm 2 mps 752 mmHg 78%
    15:00 +4°C° 0 mm 2 mps 752 mmHg 82%
    16:00 +3°C° 0 mm 2 mps 751 mmHg 86%
    17:00 +3°C° 0 mm 2 mps 751 mmHg 87%
    18:00 +2°C° 0 mm 2 mps 751 mmHg 89%
    19:00 +1°C° 0 mm 2 mps 751 mmHg 90%
    20:00 0°C° 0 mm 3 mps 751 mmHg 91%
    21:00 0°C° 0 mm 3 mps 751 mmHg 91%
    22:00 0°C° 0 mm 3 mps 751 mmHg 91%
    23:00 0°C° 0 mm 3 mps 750 mmHg 91%

    Tomorrow, 27 January, Monday

    Time Temperature Precipitation Wind Pressure Humidity
    00:00 0°C° 0 mm 3 mps 750 mmHg 91%
    01:00 0°C° 0 mm 3 mps 750 mmHg 91%
    02:00 +1°C° 0 mm 3 mps 749 mmHg 91%
    03:00 0°C° 0 mm 4 mps 749 mmHg 91%
    04:00 0°C° 0 mm 4 mps 749 mmHg 91%
    05:00 +1°C° 0 mm 4 mps 748 mmHg 90%
    06:00 +2°C° 0 mm 5 mps 748 mmHg 89%
    07:00 +2°C° 0 mm 5 mps 747 mmHg 87%
    08:00 +3°C° 0.1 mm 6 mps 747 mmHg 87%
    09:00 +3°C° 0.1 mm 6 mps 747 mmHg 86%
    10:00 +4°C° 0.1 mm 6 mps 746 mmHg 85%
    11:00 +4°C° 0 mm 6 mps 746 mmHg 84%
    12:00 +6°C° 0 mm 5 mps 746 mmHg 82%
    13:00 +6°C° 0 mm 5 mps 745 mmHg 81%
    14:00 +6°C° 0.1 mm 5 mps 745 mmHg 83%
    15:00 +6°C° 0.1 mm 5 mps 744 mmHg 85%
    16:00 +5°C° 0.1 mm 5 mps 744 mmHg 87%
    17:00 +5°C° 0.4 mm 4 mps 743 mmHg 88%
    18:00 +5°C° 0.4 mm 4 mps 743 mmHg 90%
    19:00 +5°C° 0.4 mm 4 mps 742 mmHg 92%
    20:00 +4°C° 0.2 mm 4 mps 741 mmHg 91%
    21:00 +4°C° 0.2 mm 4 mps 741 mmHg 91%
    22:00 +4°C° 0.2 mm 4 mps 740 mmHg 90%
    23:00 +5°C° 0.1 mm 4 mps 739 mmHg 89%

    Day after tomorrow, 28 January, Tuesday

    Time Temperature Precipitation Wind Pressure Humidity
    00:00 +5°C° 0.1 mm 5 mps 738 mmHg 89%
    01:00 +5°C° 0.1 mm 5 mps 737 mmHg 88%
    02:00 +5°C° 0.3 mm 5 mps 736 mmHg 87%
    03:00 +4°C° 0.3 mm 6 mps 735 mmHg 87%
    04:00 +5°C° 0.3 mm 6 mps 735 mmHg 86%
    05:00 +5°C° 0.2 mm 5 mps 734 mmHg 87%
    06:00 +5°C° 0.2 mm 5 mps 734 mmHg 87%
    07:00 +4°C° 0.2 mm 4 mps 733 mmHg 87%
    08:00 +3°C° 0.4 mm 5 mps 733 mmHg 88%
    09:00 +3°C° 0.4 mm 5 mps 733 mmHg 89%
    10:00 +3°C° 0.4 mm 5 mps 733 mmHg 90%
    11:00 +2°C° 1 mm 6 mps 733 mmHg 89%
    12:00 +2°C° 1 mm 7 mps 733 mmHg 89%
    13:00 +2°C° 1 mm 7 mps 733 mmHg 88%
    14:00 +1°C° 0.1 mm 8 mps 734 mmHg 80%
    15:00 +1°C° 0.1 mm 8 mps 735 mmHg 73%
    16:00 +1°C° 0.1 mm 9 mps 736 mmHg 65%
    17:00 0°C° 0 mm 8 mps 736 mmHg 65%
    18:00 0°C° 0 mm 8 mps 737 mmHg 66%
    19:00 0°C° 0 mm 8 mps 737 mmHg 66%
    20:00 -1°C° 0 mm 7 mps 737 mmHg 72%
    21:00 -1°C° 0 mm 7 mps 737 mmHg 78%
    22:00 -1°C° 0 mm 7 mps 737 mmHg 83%
    23:00 -1°C° 0 mm 7 mps 736 mmHg 84%

    29 January, Wednesday

    Time Temperature Precipitation Wind Pressure Humidity
    00:00 0°C° 0 mm 7 mps 736 mmHg 85%
    01:00 0°C° 0 mm 7 mps 736 mmHg 85%
    02:00 0°C° 0 mm 7 mps 736 mmHg 85%
    03:00 0°C° 0 mm 8 mps 736 mmHg 85%
    04:00 0°C° 0 mm 8 mps 736 mmHg 84%
    05:00 0°C° 0.3 mm 9 mps 736 mmHg 86%
    06:00 0°C° 0.3 mm 10 mps 736 mmHg 88%
    07:00 -1°C° 0.3 mm 11 mps 736 mmHg 89%
    08:00 0°C° 1.3 mm 10 mps 737 mmHg 91%
    09:00 0°C° 1.3 mm 9 mps 738 mmHg 93%
    10:00 0°C° 1.3 mm 9 mps 739 mmHg 94%
    11:00 0°C° 0.5 mm 9 mps 740 mmHg 92%
    12:00 0°C° 0.5 mm 8 mps 741 mmHg 91%
    13:00 +1°C° 0.5 mm 8 mps 742 mmHg 89%
    14:00 +1°C° 0.1 mm 9 mps 743 mmHg 84%
    15:00 +1°C° 0.1 mm 9 mps 744 mmHg 80%
    16:00 +1°C° 0.1 mm 9 mps 744 mmHg 75%
    17:00 +1°C° 0 mm 9 mps 745 mmHg 76%
    18:00 +1°C° 0 mm 8 mps 746 mmHg 76%
    19:00 0°C° 0 mm 8 mps 747 mmHg 76%
    20:00 0°C° 0 mm 8 mps 747 mmHg 79%
    21:00 0°C° 0 mm 8 mps 748 mmHg 81%
    22:00 -1°C° 0 mm 8 mps 748 mmHg 84%
    23:00 -1°C° 0 mm 7 mps 749 mmHg 84%

    30 January, Thursday

    Time Temperature Precipitation Wind Pressure Humidity
    00:00 -1°C° 0 mm 7 mps 749 mmHg 84%
    01:00 -1°C° 0 mm 7 mps 750 mmHg 85%
    02:00 -1°C° 0 mm 6 mps 750 mmHg 85%
    03:00 -1°C° 0 mm 6 mps 750 mmHg 85%
    04:00 -2°C° 0 mm 6 mps 750 mmHg 85%
    05:00 -1°C° 0 mm 6 mps 750 mmHg 88%
    06:00 -1°C° 0 mm 6 mps 750 mmHg 91%
    07:00 -1°C° 0 mm 7 mps 750 mmHg 94%
    08:00 -1°C° 0 mm 7 mps 750 mmHg 91%
    09:00 +1°C° 0 mm 6 mps 750 mmHg 87%
    10:00 +1°C° 0 mm 6 mps 750 mmHg 84%
    11:00 +2°C° 0 mm 6 mps 750 mmHg 80%
    12:00 +3°C° 0 mm 6 mps 750 mmHg 77%
    13:00 +3°C° 0 mm 6 mps 749 mmHg 73%
    14:00 +3°C° 0 mm 5 mps 749 mmHg 74%
    15:00 +4°C° 0 mm 4 mps 748 mmHg 75%
    16:00 +4°C° 0 mm 4 mps 747 mmHg 76%
    17:00 +3°C° 0 mm 4 mps 747 mmHg 79%
    18:00 +1°C° 0 mm 4 mps 746 mmHg 82%
    19:00 +1°C° 0 mm 4 mps 746 mmHg 84%
    20:00 +1°C° 0 mm 4 mps 745 mmHg 82%
    21:00 +1°C° 0 mm 4 mps 744 mmHg 79%
    22:00 +1°C° 0 mm 5 mps 744 mmHg 77%
    23:00 +1°C° 0.1 mm 5 mps 743 mmHg 80%

    31 January, Friday

    Time Temperature Precipitation Wind Pressure Humidity
    00:00 +2°C° 0.1 mm 6 mps 742 mmHg 82%
    01:00 +2°C° 0.1 mm 6 mps 741 mmHg 85%
    02:00 +3°C° 0.2 mm 6 mps 741 mmHg 86%
    03:00 +4°C° 0.2 mm 6 mps 741 mmHg 88%
    04:00 +4°C° 0.2 mm 6 mps 740 mmHg 89%
    05:00 +5°C° 0 mm 7 mps 741 mmHg 88%
    06:00 +5°C° 0 mm 7 mps 741 mmHg 87%
    07:00 +6°C° 0 mm 8 mps 741 mmHg 87%
    08:00 +6°C° 0 mm 8 mps 742 mmHg 87%
    09:00 +6°C° 0 mm 7 mps 743 mmHg 88%
    10:00 +6°C° 0 mm 7 mps 744 mmHg 88%
    11:00 +6°C° 0 mm 7 mps 745 mmHg 85%
    12:00 +6°C° 0 mm 7 mps 746 mmHg 83%
    13:00 +6°C° 0 mm 7 mps 746 mmHg 80%
    14:00 +6°C° 0 mm 7 mps 746 mmHg 80%
    15:00 +6°C° 0 mm 7 mps 747 mmHg 80%
    16:00 +6°C° 0 mm 7 mps 747 mmHg 81%
    17:00 +6°C° 0 mm 7 mps 747 mmHg 82%
    18:00 +6°C° 0 mm 7 mps 747 mmHg 83%
    19:00 +6°C° 0 mm 7 mps 748 mmHg 85%
    20:00 +6°C° 0 mm 7 mps 748 mmHg 85%
    21:00 +7°C° 0 mm 6 mps 748 mmHg 85%
    22:00 +8°C° 0 mm 6 mps 747 mmHg 85%
    23:00 +8°C° 0.1 mm 6 mps 747 mmHg 85%
    Show more